Zurück zum Katalog

STARLINK-36535

AktivKommunikationVLEO
NORAD 67986·PAYLOAD·🇺🇸 United States

Gestartet Feb 27, 2026 von Vandenberg Space Force Base

Loading…

Nächste Überflüge (nächste 24 Stunden)

TLE

AktuellSource: CelesTrak SupGP

Epoche: Sep 14, 2026, 22:44 UTC

1 67986C 26039A   26257.94770833  .00055201  00000+0  19993-2 0  2571
2 67986  43.0013  60.4907 0001503 275.2573  79.9143 15.27551871    11

Verfolge STARLINK-36535 in Echtzeit mit AllMySat

Download on the App Store